LBT130 DTTA-DAAG

Flight info

Callsign LBT130
Flight time 1h 1m
Altitude 24000
Route KEMIR3C KEMIR A411 BJA/N0452F360 DCT 37N004E DCT ZEM
Aircraft A320/M-SDE3FGHIRWY/LB1

Departure

Time 2026-05-04 12:50
Airport Tunis Carthage International Airport (DTTA)

Arrival

Time 2026-05-04 13:51
Airport Houari Boumediene Airport (DAAG)
Time Latitude Longitude Altitude Speed Heading
2026-05-04 12:27 36.84237 10.21831 29 ft 0 kts 282°
2026-05-04 12:39 36.84233 10.21855 30 ft 4 kts 282°
2026-05-04 12:39 36.84227 10.21883 30 ft 4 kts 278°
2026-05-04 12:39 36.84230 10.21913 30 ft 4 kts 232°
2026-05-04 12:40 36.84250 10.21931 30 ft 4 kts 197°
2026-05-04 12:40 36.84259 10.21935 30 ft 0 kts 192°
2026-05-04 12:42 36.84220 10.21924 39 ft 13 kts 192°
2026-05-04 12:42 36.84137 10.21902 30 ft 10 kts 192°
2026-05-04 12:43 36.84071 10.21885 30 ft 9 kts 192°
2026-05-04 12:43 36.84007 10.21868 30 ft 9 kts 192°
2026-05-04 12:43 36.83951 10.21854 30 ft 7 kts 189°
2026-05-04 12:43 36.83911 10.21874 30 ft 6 kts 134°
2026-05-04 12:44 36.83894 10.21931 30 ft 8 kts 104°
2026-05-04 12:44 36.83881 10.22012 30 ft 11 kts 100°
2026-05-04 12:44 36.83902 10.22097 30 ft 12 kts 26°
2026-05-04 12:44 36.83993 10.22121 30 ft 17 kts 10°
2026-05-04 12:45 36.84132 10.22159 30 ft 23 kts 13°
2026-05-04 12:45 36.84293 10.22203 30 ft 25 kts 12°
2026-05-04 12:45 36.84466 10.22250 30 ft 26 kts 12°
2026-05-04 12:45 36.84648 10.22300 30 ft 27 kts 12°
2026-05-04 12:46 36.84839 10.22352 30 ft 29 kts 13°
2026-05-04 12:46 36.84978 10.22383 31 ft 18 kts 343°
2026-05-04 12:46 36.85040 10.22268 31 ft 16 kts 294°
2026-05-04 12:46 36.85079 10.22144 31 ft 15 kts 292°
2026-05-04 12:47 36.85117 10.22031 30 ft 13 kts 293°
2026-05-04 12:47 36.85152 10.21928 30 ft 12 kts 293°
2026-05-04 12:47 36.85184 10.21832 30 ft 11 kts 293°
2026-05-04 12:47 36.85216 10.21749 30 ft 10 kts 304°
2026-05-04 12:48 36.85274 10.21712 30 ft 9 kts 358°
2026-05-04 12:48 36.85328 10.21732 30 ft 7 kts 21°
2026-05-04 12:48 36.85390 10.21766 31 ft 15 kts 24°
2026-05-04 12:48 36.85403 10.21835 32 ft 9 kts 118°
2026-05-04 12:49 36.85360 10.21962 32 ft 28 kts 106°
2026-05-04 12:49 36.85201 10.22447 36 ft 94 kts 112°
2026-05-04 12:49 36.84874 10.23423 31 ft 147 kts 113°
2026-05-04 12:49 36.84453 10.24644 574 ft 152 kts 116°
2026-05-04 12:50 36.83741 10.25594 1245 ft 152 kts 156°
2026-05-04 12:50 36.82684 10.25831 1694 ft 169 kts 190°
2026-05-04 12:50 36.81615 10.25060 2033 ft 195 kts 231°
2026-05-04 12:50 36.81263 10.23347 2524 ft 217 kts 279°
2026-05-04 12:51 36.81866 10.21579 3082 ft 237 kts 297°
2026-05-04 12:51 36.82395 10.19547 3492 ft 257 kts 273°
2026-05-04 12:51 36.82401 10.17282 4301 ft 262 kts 264°
2026-05-04 12:51 36.82253 10.15026 5254 ft 263 kts 263°
2026-05-04 12:52 36.82103 10.12723 6189 ft 266 kts 265°
2026-05-04 12:52 36.82001 10.10394 7031 ft 271 kts 266°
2026-05-04 12:52 36.81953 10.08064 7914 ft 273 kts 269°
2026-05-04 12:52 36.81947 10.05673 8761 ft 277 kts 270°
2026-05-04 12:53 36.81967 10.03251 9598 ft 281 kts 270°
2026-05-04 12:53 36.82000 10.00796 10377 ft 286 kts 270°
2026-05-04 12:53 36.82039 9.98243 10660 ft 309 kts 271°
2026-05-04 12:53 36.82085 9.95450 10955 ft 329 kts 271°
2026-05-04 12:54 36.82134 9.92550 11590 ft 336 kts 271°
2026-05-04 12:54 36.82183 9.89611 12317 ft 340 kts 271°
2026-05-04 12:54 36.82230 9.86669 13082 ft 343 kts 271°
2026-05-04 12:54 36.82275 9.83676 13792 ft 346 kts 270°
2026-05-04 12:55 36.82319 9.80648 14464 ft 349 kts 270°
2026-05-04 12:55 36.82362 9.77642 15121 ft 351 kts 270°
2026-05-04 12:55 36.82404 9.74577 15769 ft 354 kts 271°
2026-05-04 12:55 36.82445 9.71485 16430 ft 357 kts 271°
2026-05-04 12:56 36.82488 9.68381 17084 ft 359 kts 271°
2026-05-04 12:56 36.82532 9.65249 17733 ft 362 kts 271°
2026-05-04 12:56 36.82574 9.62126 18357 ft 364 kts 271°
2026-05-04 12:56 36.82618 9.58940 18899 ft 367 kts 271°
2026-05-04 12:57 36.82661 9.55736 19419 ft 370 kts 271°
2026-05-04 12:57 36.82702 9.52507 19941 ft 373 kts 271°
2026-05-04 12:57 36.82741 9.49260 20440 ft 376 kts 271°
2026-05-04 12:57 36.82780 9.45979 20941 ft 379 kts 271°
2026-05-04 12:58 36.82817 9.42717 21470 ft 380 kts 271°
2026-05-04 12:58 36.82852 9.39404 21976 ft 383 kts 271°
2026-05-04 12:58 36.82885 9.36067 22463 ft 386 kts 270°
2026-05-04 12:58 36.82919 9.32694 22953 ft 388 kts 271°
2026-05-04 12:59 36.82955 9.29352 23424 ft 391 kts 271°
2026-05-04 12:59 36.82992 9.25929 23834 ft 394 kts 271°
2026-05-04 12:59 36.83028 9.22488 23988 ft 394 kts 271°
2026-05-04 12:59 36.83059 9.19098 24042 ft 393 kts 270°
2026-05-04 13:00 36.83086 9.15695 24046 ft 392 kts 270°
2026-05-04 13:00 36.83116 9.12279 24049 ft 392 kts 271°
2026-05-04 13:00 36.83149 9.08871 24050 ft 392 kts 271°
2026-05-04 13:00 36.83181 9.05500 24050 ft 390 kts 271°
2026-05-04 13:01 36.83210 9.02118 24052 ft 390 kts 270°
2026-05-04 13:01 36.83237 8.98732 24051 ft 390 kts 271°
2026-05-04 13:01 36.83263 8.95324 24052 ft 389 kts 270°
2026-05-04 13:01 36.83286 8.91939 24053 ft 389 kts 270°
2026-05-04 13:02 36.83308 8.88560 24053 ft 389 kts 270°
2026-05-04 13:02 36.83330 8.85214 24051 ft 389 kts 270°
2026-05-04 13:02 36.83351 8.81825 24049 ft 389 kts 270°
2026-05-04 13:02 36.83371 8.78447 24050 ft 389 kts 270°
2026-05-04 13:03 36.83388 8.75072 24050 ft 389 kts 270°
2026-05-04 13:03 36.83406 8.71699 24048 ft 389 kts 270°
2026-05-04 13:03 36.83424 8.68319 24052 ft 388 kts 270°
2026-05-04 13:03 36.83442 8.64945 24054 ft 388 kts 270°
2026-05-04 13:04 36.83457 8.61618 24050 ft 388 kts 270°
2026-05-04 13:04 36.83462 8.58250 24050 ft 387 kts 270°
2026-05-04 13:04 36.83460 8.54885 24049 ft 387 kts 270°
2026-05-04 13:04 36.83453 8.51513 24046 ft 387 kts 270°
2026-05-04 13:05 36.83450 8.48186 24040 ft 387 kts 270°
2026-05-04 13:05 36.83448 8.44832 24037 ft 386 kts 270°
2026-05-04 13:05 36.83446 8.41469 24036 ft 386 kts 270°
2026-05-04 13:05 36.83445 8.38104 24034 ft 386 kts 270°
2026-05-04 13:06 36.83443 8.34776 24035 ft 386 kts 270°
2026-05-04 13:06 36.83440 8.31416 24031 ft 386 kts 270°
2026-05-04 13:06 36.83436 8.28063 24030 ft 386 kts 270°
2026-05-04 13:06 36.83428 8.24692 24028 ft 386 kts 270°
2026-05-04 13:07 36.83420 8.21330 24029 ft 387 kts 270°
2026-05-04 13:07 36.83410 8.18013 24025 ft 387 kts 270°
2026-05-04 13:07 36.83401 8.14647 24023 ft 387 kts 270°
2026-05-04 13:07 36.83391 8.11293 24022 ft 387 kts 270°
2026-05-04 13:08 36.83378 8.07928 24021 ft 387 kts 270°
2026-05-04 13:08 36.83364 8.04567 24020 ft 387 kts 270°
2026-05-04 13:08 36.83348 8.01205 24019 ft 387 kts 270°
2026-05-04 13:08 36.83331 7.97881 24020 ft 387 kts 270°
2026-05-04 13:09 36.83314 7.94506 24025 ft 387 kts 269°
2026-05-04 13:09 36.83300 7.91143 24023 ft 387 kts 270°
2026-05-04 13:09 36.83285 7.87802 24023 ft 387 kts 269°
2026-05-04 13:09 36.83267 7.84425 24022 ft 387 kts 269°
2026-05-04 13:10 36.83248 7.81101 24019 ft 387 kts 269°
2026-05-04 13:10 36.83222 7.77754 24019 ft 387 kts 269°
2026-05-04 13:10 36.83185 7.74400 24019 ft 387 kts 269°
2026-05-04 13:10 36.83144 7.71035 24020 ft 387 kts 269°
2026-05-04 13:11 36.83102 7.67665 24022 ft 387 kts 269°
2026-05-04 13:11 36.83062 7.64343 24020 ft 387 kts 269°
2026-05-04 13:11 36.83022 7.60980 24020 ft 387 kts 269°
2026-05-04 13:11 36.82982 7.57626 24023 ft 387 kts 269°
2026-05-04 13:12 36.82944 7.54245 24019 ft 387 kts 269°
2026-05-04 13:12 36.82906 7.50893 24018 ft 387 kts 269°
2026-05-04 13:12 36.82866 7.47572 24014 ft 386 kts 269°
2026-05-04 13:12 36.82822 7.44212 24013 ft 386 kts 269°
2026-05-04 13:13 36.82776 7.40855 24013 ft 386 kts 269°
2026-05-04 13:13 36.82731 7.37493 24013 ft 386 kts 269°
2026-05-04 13:13 36.82685 7.34133 24013 ft 386 kts 269°
2026-05-04 13:13 36.82640 7.30808 24013 ft 386 kts 269°
2026-05-04 13:14 36.82594 7.27445 24007 ft 386 kts 269°
2026-05-04 13:14 36.82545 7.24090 24007 ft 386 kts 269°
2026-05-04 13:14 36.82491 7.20736 24007 ft 386 kts 269°
2026-05-04 13:14 36.82437 7.17378 24007 ft 386 kts 269°
2026-05-04 13:15 36.82387 7.14030 24010 ft 386 kts 269°
2026-05-04 13:15 36.82338 7.10677 24009 ft 386 kts 269°
2026-05-04 13:15 36.82288 7.07371 24009 ft 386 kts 269°
2026-05-04 13:15 36.82236 7.04024 24008 ft 386 kts 269°
2026-05-04 13:16 36.82181 7.00664 24006 ft 386 kts 269°
2026-05-04 13:16 36.82126 6.97319 24004 ft 386 kts 269°
2026-05-04 13:16 36.82070 6.93955 24004 ft 386 kts 269°
2026-05-04 13:16 36.82011 6.90602 24005 ft 386 kts 269°
2026-05-04 13:17 36.81951 6.87295 24002 ft 386 kts 268°
2026-05-04 13:17 36.81888 6.83948 24009 ft 386 kts 268°
2026-05-04 13:17 36.81826 6.80578 24010 ft 385 kts 268°
2026-05-04 13:17 36.81766 6.77228 24010 ft 385 kts 268°
2026-05-04 13:18 36.81707 6.73918 24011 ft 385 kts 268°
2026-05-04 13:18 36.81645 6.70562 24014 ft 385 kts 268°
2026-05-04 13:18 36.81582 6.67213 24011 ft 385 kts 268°
2026-05-04 13:18 36.81517 6.63924 24008 ft 385 kts 268°
2026-05-04 13:19 36.81449 6.60566 24010 ft 384 kts 268°
2026-05-04 13:19 36.81403 6.58355 24008 ft 384 kts 268°
2026-05-04 13:19 36.81311 6.53905 24004 ft 384 kts 268°
2026-05-04 13:19 36.81241 6.50557 23992 ft 384 kts 268°
2026-05-04 13:20 36.81170 6.47224 23999 ft 384 kts 268°
2026-05-04 13:20 36.81101 6.43927 24011 ft 383 kts 268°
2026-05-04 13:20 36.81055 6.41708 24013 ft 383 kts 268°
2026-05-04 13:20 36.80985 6.38382 24011 ft 383 kts 268°
2026-05-04 13:21 36.80914 6.35066 24013 ft 382 kts 268°
2026-05-04 13:21 36.80841 6.31778 24014 ft 382 kts 268°
2026-05-04 13:21 36.80766 6.28465 24014 ft 382 kts 268°
2026-05-04 13:21 36.80691 6.25140 24014 ft 382 kts 268°
2026-05-04 13:22 36.80615 6.21832 24007 ft 381 kts 268°
2026-05-04 13:22 36.80535 6.18501 24007 ft 381 kts 268°
2026-05-04 13:22 36.80454 6.15194 24009 ft 381 kts 268°
2026-05-04 13:22 36.80376 6.11924 24011 ft 381 kts 268°
2026-05-04 13:23 36.80299 6.08617 24022 ft 381 kts 267°
2026-05-04 13:23 36.80219 6.05301 24023 ft 381 kts 267°
2026-05-04 13:23 36.80139 6.01991 24024 ft 381 kts 267°
2026-05-04 13:23 36.80061 5.98837 24023 ft 381 kts 267°
2026-05-04 13:24 36.80024 5.97408 24026 ft 381 kts 267°
2026-05-04 13:25 36.79842 5.90816 24024 ft 381 kts 267°
2026-05-04 13:25 36.79739 5.87541 24022 ft 380 kts 264°
2026-05-04 13:25 36.79427 5.84249 24012 ft 380 kts 262°
2026-05-04 13:25 36.79101 5.80977 24022 ft 380 kts 262°
2026-05-04 13:26 36.78775 5.77700 24022 ft 380 kts 262°
2026-05-04 13:26 36.78448 5.74422 24011 ft 380 kts 262°
2026-05-04 13:26 36.78121 5.71170 24017 ft 380 kts 262°
2026-05-04 13:26 36.77790 5.67895 24020 ft 380 kts 262°
2026-05-04 13:27 36.77459 5.64619 24022 ft 380 kts 262°
2026-05-04 13:27 36.77128 5.61350 24008 ft 379 kts 262°
2026-05-04 13:27 36.76800 5.58123 24010 ft 379 kts 262°
2026-05-04 13:27 36.76466 5.54848 24008 ft 379 kts 262°
2026-05-04 13:28 36.76134 5.51605 24004 ft 379 kts 262°
2026-05-04 13:28 36.75800 5.48336 24007 ft 379 kts 262°
2026-05-04 13:28 36.75463 5.45066 24012 ft 378 kts 262°
2026-05-04 13:28 36.75132 5.41856 24015 ft 378 kts 262°
2026-05-04 13:29 36.74793 5.38588 24011 ft 378 kts 262°
2026-05-04 13:29 36.74454 5.35325 24025 ft 378 kts 262°
2026-05-04 13:29 36.74116 5.32088 24024 ft 378 kts 262°
2026-05-04 13:29 36.73775 5.28817 24038 ft 378 kts 262°
2026-05-04 13:30 36.73438 5.25581 24046 ft 378 kts 262°
2026-05-04 13:30 36.73100 5.22329 24053 ft 378 kts 262°
2026-05-04 13:30 36.72758 5.19065 24048 ft 378 kts 262°
2026-05-04 13:30 36.72412 5.15810 24053 ft 378 kts 262°
2026-05-04 13:31 36.72067 5.12591 24046 ft 378 kts 262°
2026-05-04 13:31 36.71718 5.09346 24056 ft 379 kts 262°
2026-05-04 13:31 36.71368 5.06097 24054 ft 379 kts 262°
2026-05-04 13:31 36.71016 5.02829 24050 ft 380 kts 262°
2026-05-04 13:32 36.70665 4.99568 24045 ft 380 kts 262°
2026-05-04 13:32 36.70311 4.96289 24052 ft 380 kts 262°
2026-05-04 13:32 36.70248 4.93002 24047 ft 380 kts 275°
2026-05-04 13:32 36.70947 4.89852 24042 ft 384 kts 288°
2026-05-04 13:33 36.71949 4.86756 24030 ft 385 kts 289°
2026-05-04 13:33 36.72963 4.83677 23924 ft 381 kts 289°
2026-05-04 13:33 36.73969 4.80646 23694 ft 376 kts 289°
2026-05-04 13:33 36.74968 4.77627 23435 ft 374 kts 289°
2026-05-04 13:34 36.75943 4.74662 23158 ft 372 kts 289°
2026-05-04 13:34 36.76923 4.71666 22891 ft 370 kts 288°
2026-05-04 13:34 36.77877 4.68741 22610 ft 368 kts 288°
2026-05-04 13:34 36.78849 4.65754 22343 ft 367 kts 288°
2026-05-04 13:35 36.79796 4.62843 22088 ft 366 kts 288°
2026-05-04 13:35 36.81707 4.56963 21585 ft 364 kts 288°
2026-05-04 13:35 36.82651 4.54043 21332 ft 360 kts 288°
2026-05-04 13:36 36.83575 4.51186 21063 ft 354 kts 288°
2026-05-04 13:36 36.84493 4.48353 20678 ft 347 kts 288°
2026-05-04 13:36 36.85387 4.45599 20255 ft 342 kts 288°
2026-05-04 13:36 36.86280 4.42837 19825 ft 339 kts 288°
2026-05-04 13:37 36.87156 4.40119 19396 ft 336 kts 288°
2026-05-04 13:37 36.88028 4.37411 18958 ft 334 kts 288°
2026-05-04 13:37 36.88887 4.34749 18531 ft 332 kts 288°
2026-05-04 13:37 36.89472 4.32940 18224 ft 332 kts 288°
2026-05-04 13:38 36.90613 4.29396 17605 ft 328 kts 288°
2026-05-04 13:38 36.91461 4.26756 17174 ft 325 kts 288°
2026-05-04 13:38 36.92287 4.24179 16752 ft 323 kts 287°
2026-05-04 13:38 36.93120 4.21576 16313 ft 321 kts 287°
2026-05-04 13:39 36.93944 4.19006 15904 ft 318 kts 287°
2026-05-04 13:39 36.94768 4.16435 15475 ft 316 kts 287°
2026-05-04 13:39 36.95584 4.13884 15054 ft 315 kts 287°
2026-05-04 13:39 36.96391 4.11351 14634 ft 313 kts 287°
2026-05-04 13:40 36.97191 4.08840 14221 ft 312 kts 287°
2026-05-04 13:40 36.97992 4.06322 13799 ft 310 kts 287°
2026-05-04 13:40 36.98736 4.03803 13333 ft 306 kts 280°
2026-05-04 13:40 36.99039 4.01196 12882 ft 299 kts 268°
2026-05-04 13:41 36.98847 3.98669 12453 ft 294 kts 256°
2026-05-04 13:41 36.98186 3.96251 12014 ft 291 kts 244°
2026-05-04 13:41 36.97180 3.94054 11570 ft 290 kts 239°
2026-05-04 13:42 36.95132 3.89761 10689 ft 288 kts 239°
2026-05-04 13:42 36.94110 3.87620 10429 ft 281 kts 239°
2026-05-04 13:42 36.93131 3.85567 10322 ft 270 kts 239°
2026-05-04 13:42 36.92177 3.83570 10103 ft 262 kts 238°
2026-05-04 13:43 36.91249 3.81627 9920 ft 258 kts 238°
2026-05-04 13:43 36.90339 3.79721 9802 ft 258 kts 239°
2026-05-04 13:43 36.89420 3.77790 9636 ft 258 kts 239°
2026-05-04 13:43 36.88501 3.75867 9316 ft 256 kts 238°
2026-05-04 13:44 36.87588 3.73959 8958 ft 254 kts 238°
2026-05-04 13:44 36.86683 3.72069 8618 ft 253 kts 238°
2026-05-04 13:44 36.85785 3.70189 8258 ft 250 kts 238°
2026-05-04 13:44 36.84891 3.68322 7902 ft 252 kts 237°
2026-05-04 13:45 36.83991 3.66440 7549 ft 259 kts 238°
2026-05-04 13:45 36.83060 3.64498 7189 ft 259 kts 237°
2026-05-04 13:45 36.82137 3.62578 6835 ft 257 kts 237°
2026-05-04 13:45 36.81224 3.60678 6474 ft 254 kts 237°
2026-05-04 13:46 36.80319 3.58792 6109 ft 252 kts 237°
2026-05-04 13:46 36.79649 3.56778 5751 ft 252 kts 255°
2026-05-04 13:46 36.79592 3.54572 5396 ft 254 kts 269°
2026-05-04 13:46 36.79686 3.52382 5044 ft 252 kts 268°
2026-05-04 13:47 36.79775 3.50222 4694 ft 250 kts 269°
2026-05-04 13:47 36.79860 3.48068 4330 ft 247 kts 269°
2026-05-04 13:47 36.79942 3.45924 3974 ft 247 kts 269°
2026-05-04 13:47 36.80024 3.43782 3618 ft 252 kts 268°
2026-05-04 13:48 36.80106 3.41548 3258 ft 261 kts 268°
2026-05-04 13:48 36.79847 3.39288 2880 ft 273 kts 244°
2026-05-04 13:48 36.78809 3.37265 2493 ft 279 kts 231°
2026-05-04 13:48 36.77561 3.35397 2156 ft 285 kts 232°
2026-05-04 13:49 36.76314 3.33431 1742 ft 289 kts 234°
2026-05-04 13:49 36.75132 3.31464 1376 ft 275 kts 236°
2026-05-04 13:49 36.74020 3.29629 1027 ft 253 kts 234°
2026-05-04 13:49 36.73011 3.27973 707 ft 227 kts 234°
2026-05-04 13:50 36.72101 3.26479 405 ft 209 kts 235°
2026-05-04 13:50 36.71267 3.25110 152 ft 186 kts 235°
2026-05-04 13:50 36.70540 3.23919 103 ft 161 kts 235°
2026-05-04 13:50 36.69929 3.22904 67 ft 131 kts 235°
2026-05-04 13:51 36.69575 3.22339 60 ft 40 kts 231°
2026-05-04 13:51 36.69442 3.22104 59 ft 14 kts 246°
2026-05-04 13:51 36.69455 3.22013 60 ft 10 kts 312°
2026-05-04 13:51 36.69516 3.21979 61 ft 10 kts 339°
2026-05-04 13:52 36.69664 3.21911 63 ft 13 kts 341°
2026-05-04 13:52 36.69758 3.21873 65 ft 15 kts 342°
2026-05-04 13:52 36.69863 3.21831 64 ft 17 kts 341°
2026-05-04 13:53 36.69954 3.21748 59 ft 18 kts 279°
2026-05-04 13:53 36.69914 3.21604 66 ft 17 kts 245°
2026-05-04 13:53 36.69874 3.21473 66 ft 16 kts 251°
2026-05-04 13:54 36.69816 3.21248 67 ft 12 kts 251°
2026-05-04 13:54 36.69791 3.21156 67 ft 10 kts 251°
2026-05-04 13:54 36.69729 3.21036 64 ft 4 kts 263°
2026-05-04 13:55 36.69740 3.21003 63 ft 4 kts 292°
2026-05-04 13:55 36.69765 3.20927 70 ft 0 kts 294°